星链-4610 (STARLINK-4610 )

导读

STARLINK-4610是美国SpaceX星链星座的一员,于2022年8月28日发射升空,旨在为全球提供低延迟、高速率的卫星互联网服务。作为星链批量部署的卫星之一,它运行在近地轨道,通过星际链路与其他卫星协同工作,支撑全球,尤其偏远地区的网络覆盖能力,是SpaceX构建大规模卫星互联网星座的组成部分。

Basic Information
目录编号:
53610
目录名称:
STARLINK-4610
国际标识:
2022-104Y
轨道中心:
EARTH
卫星名称:
星链-4610
卫星全名:
星链-4610 (STARLINK-4610 )
卫星状态:
在轨 (已飞行1389 天)
发射日期:
2022-08-28 UTC
国别 :
美国 (US)
星等 :
--
Orbit Information
数据来源 国际轨道数据 AOE轨道数据
星历时间 2026-06-16T23:43:01+0800
18小时前
查看轨道信息
2026-06-16T12:00:00+0800
1天前
查看轨道信息
半长轴 6917.913km 6917.905km
偏心率 0.0001408 0.0001742
轨道倾角 53.161° 53.158°
近地点辐角 82.105° 71.306°
升交点赤经 149.881° 152.078°
平近点角 278.010° 155.549°
近地点 538.801km 538.562km
远地点 540.751km 540.974km
周期 95.438分钟 95.438分钟
每日圈数 15.088295 15.08832
Detailed Information
固有亮度:
5
最大亮度:
2.5
卫星平台:
Starlink v1.5
覆盖范围:
全球
运营商:
太空探索技术公司
运营商所在国:
美国
制造商(研发单位):
太空探索技术公司
制造商所在国:
美国
使用方式:
暂无
Satellite Introduction
星链(Starlink)计划是由太空探索技术公司(SpaceX)提出的一个巨型低轨卫星互联网星座项目,计划在2019年至2024年间在太空搭建由约1.2万颗卫星组成的“星链”网络,其中1584颗将部署在地球上空550千米处的近地轨道,并从2020年开始工作。该卫星仍在工作。
2D Orbit Map
3D Orbit Map
Orbit Altitude Analysis Chart
Orbit Inclination Analysis Chart
Orbit Comprehensive Analysis Chart
View Comprehensive Chart